Regional Weather Roundup
Issued by NWS Newport/Morehead, NC

Current Version | Previous Version | Text Only | Print | Product List | Glossary Off
Versions: 1 2 3 4 5 6 7 8 9 10 11 12 13 14 15 16 17 18 19 20 21 22 23 24 25 26 27 28 29 30 31 32 33 34 35 36 37 38 39 40 41 42 43 44 45 46 47 48 49 50
000 ASUS42 KMHX 240113 RWRMHX WEATHER ROUNDUP FOR EASTERN NORTH CAROLINA NATIONAL WEATHER SERVICE NEWPORT/MOREHEAD CITY NC 900 PM EDT MON APR 23 2018 NOTE: "FAIR" INDICATES FEW OR NO CLOUDS BELOW 12,000 FEET WITH NO SIGNIFICANT WEATHER AND/OR OBSTRUCTIONS TO VISIBILITY NCZ015>017-031-032-045>047-102-103-240200- NORTH COAST CITY SKY/WX TMP DP RH WIND PRES REMARKS EDENTON FAIR 61 52 71 E12G18 30.31S ELIZABETH CITY FAIR 59 49 69 E13 30.32S KITTY HAWK FAIR 55 48 79 E6 30.31R MANTEO FAIR 58 49 72 E9 30.32S $$ NCZ045>047-081-094-103-104-240200- CENTRAL COAST CITY SKY/WX TMP DP RH WIND PRES REMARKS FRISCO FAIR 63 51 65 E13 30.29R $$ NCZ095-097-098-100-101-240200- SOUTHERN COAST CITY SKY/WX TMP DP RH WIND PRES REMARKS BEAUFORT CLOUDY 66 54 65 E15G23 30.23 CEDAR ISLAND NOT AVBL JACKSONVILLE MOCLDY 65 55 70 E20G31 30.19S PINEY ISLAND NOT AVBL WILMINGTON CLOUDY 64 56 75 E20G25 30.17R $$ NCZ011>013-027>030-043-044-078>080-089-090>093-098-240200- COASTAL PLAIN CITY SKY/WX TMP DP RH WIND PRES REMARKS AHOSKIE FAIR 59 43 56 E5 30.31R CLINTON FAIR 60 56 88 E10G16 30.18S ELIZABETHTOWN CLOUDY 60 57 89 MISG 30.14F GOLDSBORO FAIR 61 53 76 E8 30.19S GREENVILLE MOCLDY 63 46 55 E12 30.26S HAVELOCK NOT AVBL KENANSVILLE CLOUDY 59 55 88 E5 30.20R KINSTON CLOUDY 63 52 67 E12G21 30.23S NEW BERN FAIR 64 50 60 E13G22 30.24F RICHLANDS MOCLDY 63 55 75 E10 30.20R ROCKY MOUNT MOCLDY 62 46 55 E9G22 30.25R WASHINGTON FAIR 62 47 59 E12G17 30.27R WHITEVILLE MOCLDY 63 58 85 E17G23 30.11S $$ AMZ130-135-150-152-154-156-158-170-250-252-270-ANZ085-086-088-633-658-670-240200- MARINE OBSERVATIONS STATION/POSITION TIME TEMP WIND PRES WAVE SWELL AIR SEA DIR/SP/G HT/PER HT/PER (UTC) (F) (DEG/KT/KT) (MB) (FT/S) (FT/S) CHESAPEAKE LIGHT NOT AVBL 64 E VA BEACH 0050 53 50 80/ 14/ 16 1028.0 3/ 5 2/ 7 DUCK 0048 55 55 70/ 14/ 15 1026.6 2 E DUCK 0030 53 N/A 4/ 6 OREGON INLET 0042 56 58 70/ 6/ 8 1026.5 13E OREGON INLT 0048 52 N/A 5/ 7 5/ 7 HATTERAS CG 0048 64 62 110/ 11/ 17 1025.1 DIAMOND BUOY 0050 67 73 100/ 21/ 27 1025.4 6/ 6 2/11 CAPE LOOKOUT 0000 100/ 20/ 23 1024.0 BEAUFORT LAB 0048 65 63 110/ 14/ 18 1024.0 30 SE NEW RVR IN 0008 67 65 120/ 19/ 25 1022.8 30 SE NEW RVR IN 0030 65 N/A 10/ 8 2/11 27 SE WRIGHTSVLE 0008 66 65 130/ 23/ 35 1021.7 5 SE WRIGHTSVLE 0008 64 61 130/ 17/ 25 1020.9 225 S CAPE HAT 0050 69 72 110/ 23/ 27 1022.8 7/ 6 2/14 41 SE CHARLESTON 0050 66 67 110/ 33/ 41 1013.7 15/10 11/10 $$

USA.gov is the U.S. government's official web portal to all federal, state and local government web resources and services.